TimeAKDT,TemperatureF,Dew PointF,Humidity,Sea Level PressureIn,VisibilityMPH,Wind Direction,Wind SpeedMPH,Gust SpeedMPH,PrecipitationIn,Events,Conditions,WindDirDegrees,DateUTC
12:16 AM,44.6,35.6,71,30.02,10.0,NE,6.9,-,N/A,,Mostly Cloudy,50,2013-07-05 08:16:00
12:36 AM,44.6,37.4,76,30.02,10.0,ENE,6.9,-,N/A,,Scattered Clouds,60,2013-07-05 08:36:00
12:56 AM,44.6,37.4,76,30.02,10.0,ENE,6.9,-,N/A,,Clear,70,2013-07-05 08:56:00
1:16 AM,42.8,35.6,76,30.02,10.0,ENE,6.9,-,N/A,,Clear,70,2013-07-05 09:16:00
1:36 AM,42.8,35.6,76,30.02,10.0,NE,6.9,-,N/A,,Mostly Cloudy,50,2013-07-05 09:36:00
1:56 AM,44.6,37.4,76,30.01,10.0,NNE,8.1,-,N/A,,Overcast,30,2013-07-05 09:56:00
2:16 AM,42.8,37.4,81,30.01,10.0,NE,8.1,-,N/A,,Overcast,40,2013-07-05 10:16:00
2:36 AM,44.6,37.4,76,30.01,10.0,NE,6.9,-,N/A,,Overcast,40,2013-07-05 10:36:00
2:56 AM,44.6,37.4,76,30.01,10.0,NE,5.8,-,N/A,,Overcast,40,2013-07-05 10:56:00
3:16 AM,44.6,37.4,76,30.00,10.0,NE,3.5,-,N/A,,Overcast,50,2013-07-05 11:16:00
3:36 AM,44.6,37.4,76,30.00,10.0,NNE,3.5,-,N/A,,Overcast,20,2013-07-05 11:36:00
3:56 AM,44.6,37.4,76,29.99,10.0,Calm,Calm,-,N/A,,Overcast,0,2013-07-05 11:56:00
4:16 AM,44.6,37.4,76,29.99,10.0,Calm,Calm,-,N/A,,Overcast,0,2013-07-05 12:16:00
4:36 AM,44.6,37.4,76,29.97,10.0,North,3.5,-,N/A,,Overcast,10,2013-07-05 12:36:00
4:56 AM,44.6,39.2,81,29.96,10.0,Calm,Calm,-,N/A,,Overcast,0,2013-07-05 12:56:00
5:16 AM,46.4,39.2,76,29.96,10.0,Calm,Calm,-,N/A,,Overcast,0,2013-07-05 13:16:00
5:36 AM,46.4,39.2,76,29.96,10.0,ESE,3.5,-,N/A,,Overcast,110,2013-07-05 13:36:00
5:56 AM,44.6,39.2,81,29.96,10.0,Calm,Calm,-,N/A,,Overcast,0,2013-07-05 13:56:00
6:16 AM,46.4,39.2,76,29.96,9.0,Calm,Calm,-,N/A,,Overcast,0,2013-07-05 14:16:00
6:36 AM,46.4,39.2,76,29.95,10.0,Calm,Calm,-,N/A,,Overcast,0,2013-07-05 14:36:00
6:56 AM,46.4,39.2,76,29.95,10.0,NNE,3.5,-,N/A,,Overcast,20,2013-07-05 14:56:00
7:16 AM,46.4,39.2,76,29.95,10.0,NNE,4.6,-,N/A,,Overcast,30,2013-07-05 15:16:00
7:36 AM,46.4,41.0,81,29.95,10.0,Calm,Calm,-,N/A,,Overcast,0,2013-07-05 15:36:00
7:56 AM,46.4,41.0,81,29.95,10.0,Calm,Calm,-,N/A,,Overcast,0,2013-07-05 15:56:00
8:16 AM,48.2,41.0,76,29.94,10.0,ENE,3.5,-,N/A,,Overcast,70,2013-07-05 16:16:00
8:36 AM,48.2,41.0,76,29.94,10.0,East,3.5,-,N/A,,Overcast,80,2013-07-05 16:36:00
8:56 AM,48.2,41.0,76,29.94,10.0,Calm,Calm,-,N/A,,Overcast,0,2013-07-05 16:56:00
9:16 AM,48.2,42.8,82,29.94,10.0,Calm,Calm,-,N/A,,Overcast,0,2013-07-05 17:16:00
9:36 AM,50.0,41.0,71,29.94,10.0,Calm,Calm,-,N/A,,Overcast,0,2013-07-05 17:36:00
9:56 AM,51.8,42.8,71,29.93,10.0,SSE,9.2,-,N/A,,Overcast,160,2013-07-05 17:56:00
10:16 AM,53.6,42.8,67,29.92,10.0,SSE,6.9,-,N/A,,Overcast,160,2013-07-05 18:16:00
10:36 AM,53.6,42.8,67,29.92,10.0,South,11.5,-,N/A,,Overcast,180,2013-07-05 18:36:00
10:56 AM,53.6,42.8,67,29.92,10.0,SSE,11.5,-,N/A,,Overcast,160,2013-07-05 18:56:00
11:16 AM,55.4,42.8,63,29.91,10.0,SE,11.5,-,N/A,,Overcast,130,2013-07-05 19:16:00
11:36 AM,55.4,42.8,63,29.93,10.0,SSE,12.7,17.3,N/A,,Overcast,150,2013-07-05 19:36:00
11:56 AM,55.4,42.8,63,29.92,10.0,SE,15.0,-,N/A,,Overcast,140,2013-07-05 19:56:00
12:16 PM,55.4,42.8,63,29.92,10.0,SSE,13.8,-,N/A,,Overcast,150,2013-07-05 20:16:00
12:36 PM,55.4,42.8,63,29.92,10.0,SSE,15.0,-,N/A,,Overcast,150,2013-07-05 20:36:00
12:56 PM,55.4,42.8,63,29.92,10.0,SSE,13.8,-,N/A,,Overcast,150,2013-07-05 20:56:00
1:16 PM,55.4,42.8,63,29.91,10.0,SSE,16.1,-,N/A,,Overcast,150,2013-07-05 21:16:00
1:36 PM,57.2,42.8,59,29.92,10.0,SE,17.3,-,N/A,,Overcast,140,2013-07-05 21:36:00
1:56 PM,55.4,42.8,63,29.91,10.0,SE,17.3,-,N/A,,Overcast,140,2013-07-05 21:56:00
2:16 PM,57.2,42.8,59,29.91,10.0,SSE,18.4,-,N/A,,Overcast,150,2013-07-05 22:16:00
2:36 PM,55.4,42.8,63,29.91,10.0,SE,16.1,-,N/A,,Overcast,140,2013-07-05 22:36:00
2:56 PM,57.2,42.8,59,29.91,10.0,SSE,17.3,20.7,N/A,,Overcast,150,2013-07-05 22:56:00
3:16 PM,55.4,42.8,63,29.91,10.0,SE,16.1,21.9,N/A,,Overcast,140,2013-07-05 23:16:00
3:36 PM,57.2,42.8,59,29.90,10.0,SSE,16.1,20.7,N/A,,Overcast,150,2013-07-05 23:36:00
3:56 PM,55.4,42.8,63,29.90,10.0,SSE,17.3,-,N/A,,Overcast,150,2013-07-05 23:56:00
4:16 PM,55.4,42.8,63,29.90,10.0,SSE,16.1,-,N/A,,Overcast,150,2013-07-06 00:16:00
4:36 PM,53.6,42.8,67,29.90,10.0,SSE,17.3,21.9,N/A,,Overcast,150,2013-07-06 00:36:00
4:56 PM,53.6,42.8,67,29.90,10.0,SSE,16.1,21.9,N/A,,Overcast,150,2013-07-06 00:56:00
5:16 PM,53.6,42.8,67,29.89,10.0,SSE,18.4,-,N/A,,Overcast,150,2013-07-06 01:16:00
5:36 PM,53.6,42.8,67,29.89,10.0,SE,17.3,-,N/A,,Overcast,140,2013-07-06 01:36:00
5:56 PM,53.6,42.8,67,29.89,10.0,SSE,11.5,20.7,N/A,,Overcast,150,2013-07-06 01:56:00
6:16 PM,55.4,42.8,63,29.88,10.0,SSE,13.8,-,N/A,,Overcast,160,2013-07-06 02:16:00
6:36 PM,55.4,42.8,63,29.88,10.0,SSE,13.8,-,N/A,,Overcast,150,2013-07-06 02:36:00
6:56 PM,55.4,42.8,63,29.88,10.0,SSE,13.8,-,N/A,,Overcast,150,2013-07-06 02:56:00
7:16 PM,55.4,42.8,63,29.88,10.0,SSE,13.8,17.3,N/A,,Overcast,160,2013-07-06 03:16:00
7:36 PM,53.6,42.8,67,29.88,10.0,SSE,12.7,-,N/A,,Overcast,150,2013-07-06 03:36:00
7:56 PM,53.6,42.8,67,29.88,10.0,SSE,11.5,-,N/A,,Overcast,150,2013-07-06 03:56:00
8:16 PM,53.6,42.8,67,29.88,10.0,SSE,11.5,-,N/A,,Overcast,150,2013-07-06 04:16:00
8:36 PM,53.6,42.8,67,29.88,10.0,SSE,10.4,-,N/A,,Overcast,160,2013-07-06 04:36:00
8:56 PM,53.6,42.8,67,29.88,10.0,ESE,4.6,-,N/A,,Overcast,110,2013-07-06 04:56:00
9:16 PM,53.6,42.8,67,29.88,10.0,SE,4.6,-,N/A,,Overcast,130,2013-07-06 05:16:00
9:36 PM,53.6,42.8,67,29.87,10.0,SSE,4.6,-,N/A,,Overcast,160,2013-07-06 05:36:00
9:56 PM,53.6,42.8,67,29.87,10.0,NNW,5.8,-,N/A,,Overcast,340,2013-07-06 05:56:00
10:16 PM,50.0,42.8,76,29.87,10.0,NW,6.9,-,N/A,,Overcast,320,2013-07-06 06:16:00
10:36 PM,48.2,42.8,82,29.87,10.0,NW,5.8,-,N/A,,Overcast,320,2013-07-06 06:36:00
10:56 PM,48.2,42.8,82,29.86,10.0,NW,5.8,-,N/A,,Overcast,320,2013-07-06 06:56:00
11:16 PM,48.2,41.0,76,29.87,10.0,NW,5.8,-,N/A,,Overcast,320,2013-07-06 07:16:00
11:36 PM,46.4,41.0,81,29.86,10.0,NW,5.8,-,N/A,,Partly Cloudy,320,2013-07-06 07:36:00
11:56 PM,46.4,39.2,76,29.87,10.0,WNW,5.8,-,N/A,,Clear,300,2013-07-06 07:56:00